Location: Unspecified
(49.2170°N, 0.0000°E)
Time: 02:43:13
(UTC+00:00)

Vanguard 3 - Pass Details

Date: 02 July 2019
Orbit: 507 x 3264 km, 33.4° (Epoch: 22 July)

Event Time Altitude Azimuth Distance (km) Brightness Sun altitude
Rises 08:18:11 0° 230° (SW) 7,216 11.7 38.9°
Reaches altitude 10° 08:23:40 10° 223° (SW) 6,182 11.5 39.8°
Maximum altitude 08:40:05 37° 166° (SSE) 3,774 11.3 42.4°
Drops below altitude 10° 08:52:04 10° 106° (ESE) 4,561 12.0 44.3°
Sets 08:55:23 0° 98° (E) 5,212 12.0 44.8°
